Pagrindinis puslapis
METAR-TAF:

METAR-TAF

Oro uostai :

Sitiawan, Malaizija

platuma: 04-13N, ilguma: 100-42E, Aukštis: 7 m

Dabartinis oras

Ataskaita buvo paskelbta 29 minutes, ne 21:00 UTC
Ramus vėjas
Temperatūra 25°C
Drėgmė 94%
Slėgis 1010 hPa
Matomumas: 8000 m
Mažai debesys ne aukštis 3100 ft

METAR: WMBA 122100Z 00000KT 8000 FEW031 25/24 Q1010

Laikas: 05:29 (21:29 UTC)


TAF: trūkstamas

Orai ataskaitas ir orų prognozės (METAR, TAF).

turimą stotys yra geltonos ir raudonos taškus žemėlapyje.

Perkelti pele per norėdami pamatyti stoties vardą.

Tada spustelėkite, norėdami matyti oro stebėjimo ir prognozės.

Norėdami pakeisti žemėlapį: spustelėkite ant žalios mygtukų su juodo kryžiaus žemyn,; žalią mygtuką su brūkšneliu, jei norite nutolinti; arba žalių rodyklių gretimoms žemėlapius.


METAR-TAF: